Location: Edmonton
(53.5500°N, 113.5000°W)
Time: 18:35:02
(UTC-06:00)

Daily predictions for brighter satellites

Satellite Brightness Start Highest point End
(mag) Time Altitude Azimuth Time Altitude Azimuth Time Altitude Azimuth
deb Chang Zheng 4 3.6 22:11:20 10° NNE 22:15:46 71° ESE 22:20:12 10° S
Cosmos 614 Rocket 4.4 22:11:19 10° NNW 22:16:21 62° WSW 22:21:21 10° S
Cosmos 1825 2.4 22:13:07 10° SSW 22:16:56 78° WNW 22:20:48 10° N
NOSS 5 (C) 4.1 22:15:21 10° SW 22:18:30 73° SE 22:21:42 10° NE
MetOp-A 4.3 22:14:40 10° SSE 22:20:02 84° WSW 22:25:26 10° NNW
Cosmos 1833 Rocket 2.8 22:14:46 10° NNW 22:20:24 79° WSW 22:26:01 10° SSE
ISS -2.7 22:19:27 10° SW 22:22:27 35° SSE 22:25:28 10° E
Envisat 3.8 22:18:44 10° S 22:23:42 52° W 22:28:41 10° NNW
ATLAS 2AS CENTAUR R/B 3.9 22:16:17 10° NW 22:24:13 50° NNE 22:31:58 10° E
Terra 2.7 22:23:48 10° SE 22:28:08 36° ENE 22:32:29 10° N
USA 245 3.6 22:24:38 10° SSE 22:28:29 82° ENE 22:33:25 10° NNW
Cosmos 1844 Rocket 3.6 22:24:14 10° SW 22:29:46 56° NW 22:35:20 10° NNE
Cosmos 2341 Rocket 4.2 22:24:23 10° SSW 22:30:41 80° WNW 22:36:59 10° N
H-2A R/B 3.2 22:26:53 10° S 22:30:54 40° W 22:34:52 10° NNW
NOSS 3-1 (C) 4.1 22:24:59 10° NW 22:32:13 83° NE 22:40:19 10° SE
SL-8 Rocket 4.0 22:27:11 10° S 22:33:24 71° E 22:39:36 10° NNE
Cosmos 2278 Rocket 2.3 22:29:06 10° SSW 22:34:48 86° WNW 22:40:32 10° NNE
Cosmos 1420 Rocket 4.0 22:32:10 10° SSW 22:37:25 84° ESE 22:42:38 10° NNE
Cosmos 2151 Rocket 3.8 22:35:54 10° S 22:40:20 57° E 22:44:48 10° NNE
Cosmos 1844 4.5 22:36:07 10° SW 22:41:50 60° NW 22:47:36 10° NNE
CZ-4B R/B 3.7 22:37:26 10° NNE 22:42:16 49° E 22:46:57 10° S
Okean 1 3.6 22:38:38 10° N 22:42:39 54° ENE 22:46:23 12° SSE
APEX 3.9 22:38:36 10° SSW 22:43:03 75° ESE 22:48:58 10° NE
Cosmos 1486 Rocket 4.2 22:39:22 10° NNW 22:44:43 71° ENE 22:49:39 12° SE
Cosmos 1812 2.8 22:42:52 10° N 22:46:46 68° ENE 22:50:23 11° SSE
Cosmos 2082 Rocket 3.1 22:43:02 10° NW 22:48:25 44° WSW 22:53:44 10° S
Cosmos 1184 Rocket 4.4 22:45:45 10° SW 22:48:54 38° WNW 22:52:06 10° N
SPOT 5 4.1 22:44:25 10° S 22:49:33 46° W 22:54:42 10° NNW
Okean 1 Rocket 4.0 22:51:03 12° SSE 22:54:36 33° E 22:58:35 10° NNE
Lacrosse 5 3.1 22:56:51 10° S 23:00:35 21° SE 23:04:20 10° E
Cosmos 864 Rocket 4.5 22:56:15 10° S 23:02:23 79° E 23:08:37 10° NNE
Meteor 2-4 Rocket 4.4 22:58:58 10° N 23:04:04 39° ENE 23:08:24 14° SE
H-2A R/B 2.1 23:01:28 12° SSE 23:06:22 82° ENE 23:11:37 10° NNW
Okean 1-7 Rocket 3.6 23:04:17 10° N 23:08:47 71° ENE 23:12:23 16° SSE
Okean 2 Rocket 4.5 23:07:32 10° SW 23:11:40 39° WNW 23:15:50 10° N
Cosmos 2297 3.8 23:07:56 10° SSW 23:13:40 83° WNW 23:19:28 10° NNE
SL-8 R/B 4.2 23:09:22 10° W 23:13:55 43° S 23:17:32 15° SE
Cosmos 2084 4.3 23:10:21 10° WSW 23:14:04 47° NNW 23:17:50 10° NE
Cosmos 2366 rocket 4.1 23:09:23 10° SSW 23:15:43 83° W 23:22:08 10° N
ASTEX 1 3.7 23:15:27 10° NNE 23:20:18 50° E 23:23:57 17° SSE
Cosmos 1633 4.1 23:19:12 17° ESE 23:20:43 22° E 23:23:38 10° NE
Meteor 1-13 Rocket 4.4 23:15:23 10° NNW 23:21:22 85° ENE 23:26:19 16° SSE
Iridium 4 Rocket 4.2 23:19:11 10° N 23:24:55 50° E 23:29:11 18° SSE
Cosmos 1315 Rocket 4.3 23:26:59 17° ESE 23:28:26 21° E 23:31:26 10° NE
Lacrosse 5 rocket 1.9 23:26:05 10° SSW 23:29:26 29° SE 23:32:42 10° ENE
CARTOSAT-1 3.7 23:26:57 16° S 23:30:19 70° WSW 23:34:40 10° NNW
CZ-4 R/B 3.8 23:28:34 10° NNE 23:33:16 82° WNW 23:37:55 10° SSW
Cosmos 2084 Rocket 3.3 23:30:19 10° NW 23:34:09 68° SW 23:36:30 23° SSE
Cosmos 1346 Rocket 4.4 23:33:37 10° N 23:36:48 23° ENE 23:38:59 15° ESE
BREEZE-M DEB 4.4 23:33:44 10° WSW 23:36:54 38° S 23:37:28 33° SSE
ARGOS 4.4 23:32:51 10° SSW 23:37:45 36° W 23:42:42 10° NNW
Cosmos 2369 Rocket 3.0 23:37:36 20° SSE 23:40:35 32° ESE 23:45:30 10° NE
Cosmos 375 4.5 23:37:35 10° NW 23:42:08 76° NE 23:44:40 21° ESE
Meteor 1-11 Rocket 3.9 23:38:45 17° S 23:43:13 60° E 23:48:50 10° NNE
Okean 2 3.9 23:39:51 10° N 23:43:54 47° ENE 23:46:11 23° SE
SAR-Lupe-2 3.7 23:46:11 24° S 23:48:13 69° WSW 23:51:48 10° NNW
IGS 5A 4.0 23:45:34 18° S 23:48:30 53° W 23:52:36 10° NNW
Cosmos 2227 Rocket 4.4 23:44:41 10° NNW 23:48:53 21° NNE 23:53:05 10° ENE
Cosmos 2219 4.2 23:46:07 10° NNW 23:51:25 39° NE 23:56:14 12° ESE
Cosmos 1892 Rocket 3.6 23:47:08 10° N 23:51:31 67° ENE 23:53:58 25° SSE
Cosmos 1503 Rocket 4.2 23:48:06 10° NNW 23:53:19 68° WSW 23:56:44 22° S
Cosmos 1331 Rocket 4.0 23:48:52 10° SSW 23:54:01 80° WNW 23:59:13 10° NNE
